TimeAKDT,TemperatureF,Dew PointF,Humidity,Sea Level PressureIn,VisibilityMPH,Wind Direction,Wind SpeedMPH,Gust SpeedMPH,PrecipitationIn,Events,Conditions,WindDirDegrees,DateUTC
12:55 AM,27.0,5.7,41,29.53,10.0,NNE,11.5,-,N/A,,Clear,20,2012-10-31 08:55:00
1:55 AM,26.1,4.8,40,29.52,10.0,North,13.8,-,N/A,,Clear,10,2012-10-31 09:55:00
2:55 AM,19.2,7.2,59,29.52,10.0,NNE,9.2,-,N/A,,Clear,30,2012-10-31 10:55:00
3:55 AM,18.0,8.6,67,29.51,10.0,NE,6.9,-,N/A,,Clear,40,2012-10-31 11:55:00
4:55 AM,21.0,5.7,52,29.51,10.0,North,5.8,-,N/A,,Clear,360,2012-10-31 12:55:00
5:55 AM,23.2,7.3,51,29.49,10.0,NE,9.2,17.3,N/A,,Clear,40,2012-10-31 13:55:00
6:55 AM,18.0,7.3,63,29.50,10.0,NNE,5.8,-,N/A,,Clear,30,2012-10-31 14:55:00
7:55 AM,14.0,6.4,72,29.50,10.0,NE,3.5,-,N/A,,Clear,40,2012-10-31 15:55:00
8:55 AM,14.0,6.4,72,29.50,10.0,ENE,5.8,-,N/A,,Clear,60,2012-10-31 16:55:00
9:55 AM,14.5,6.6,71,29.51,10.0,Calm,Calm,-,N/A,,Clear,0,2012-10-31 17:55:00
10:55 AM,17.2,7.9,67,29.52,10.0,ENE,3.5,-,N/A,,Scattered Clouds,60,2012-10-31 18:55:00
11:55 AM,17.6,7.7,65,29.53,10.0,Calm,Calm,-,N/A,,Clear,0,2012-10-31 19:55:00
12:55 PM,22.1,9.7,59,29.55,10.0,NE,3.5,-,N/A,,Clear,50,2012-10-31 20:55:00
1:55 PM,26.4,8.2,46,29.54,10.0,Calm,Calm,-,N/A,,Clear,0,2012-10-31 21:55:00
2:55 PM,26.8,6.6,42,29.54,10.0,Calm,Calm,-,N/A,,Clear,0,2012-10-31 22:55:00
3:55 PM,28.0,4.1,36,29.54,10.0,Variable,5.8,-,N/A,,Clear,0,2012-10-31 23:55:00
4:55 PM,26.2,7.2,44,29.55,10.0,Calm,Calm,-,N/A,,Clear,0,2012-11-01 00:55:00
5:55 PM,23.4,6.1,48,29.56,10.0,Calm,Calm,-,N/A,,Partly Cloudy,0,2012-11-01 01:55:00
6:55 PM,18.7,7.5,62,29.57,10.0,ENE,4.6,-,N/A,,Clear,60,2012-11-01 02:55:00
7:55 PM,17.1,7.3,66,29.59,10.0,NE,4.6,-,N/A,,Clear,40,2012-11-01 03:55:00
8:55 PM,17.6,8.2,67,29.61,10.0,Calm,Calm,-,N/A,,Overcast,0,2012-11-01 04:55:00
9:55 PM,15.4,8.1,73,29.63,10.0,Calm,Calm,-,N/A,,Clear,0,2012-11-01 05:55:00
10:55 PM,20.1,4.8,52,29.64,10.0,North,9.2,-,N/A,,Clear,360,2012-11-01 06:55:00
11:55 PM,13.5,5.4,70,29.66,10.0,ENE,4.6,-,N/A,,Clear,70,2012-11-01 07:55:00